This demonstration page uses our WeatherBlox Daily Observations layout. Learn more.

Left ArrowRight Arrow

Hourly Observations for July 27, 2016

Temp ( °F °C ) Dew Point ( °F °C ) Humidity (%) Winds ( mph kmh ) Pressure ( in mb ) Visibility ( mi km ) Precip ( " mm )
12:53 am 00:53 Partly Cloudy 72 22.2 70 21.1 94 94 N N/A 30.01 1016 10 16 N/A
1:48 am 01:48 Mostly Cloudy 72 22 70 21 94 94 N N/A 30.00 1016 7 11 N/A
1:53 am 01:53 Mostly Cloudy 71 21.7 69 20.6 94 94 N N/A 30.00 1016 7 11 N/A
2:08 am 02:08 Partly Cloudy 71 21.7 69 20.6 94 94 N N/A 30.00 1016 8 13 N/A
2:53 am 02:53 Cloudy 72 22.2 70 21.1 94 94 N N/A 29.99 1016 9 14 N/A
3:53 am 03:53 Mostly Clear 72 22.2 70 21.1 94 94 SSW 3 6 29.98 1015 9 14 N/A
4:53 am 04:53 Clear 71 21.7 69 20.6 94 94 N N/A 29.98 1015 9 14 N/A
5:53 am 05:53 Clear 71 21.7 69 20.6 94 94 N N/A 29.99 1016 8 13 N/A
6:53 am 06:53 Partly Cloudy with Mist and Fog 71 21.7 69 20.6 94 94 N N/A 30.01 1016 6 10 N/A
7:53 am 07:53 Sunny 74 23.3 70 21.1 88 88 WNW 3 6 30.02 1017 10 16 N/A
8:53 am 08:53 Mostly Cloudy 76 24.4 69 20.6 79 79 NW 3 6 30.03 1017 10 16 N/A
9:53 am 09:53 Sunny 78 25.6 69 20.6 74 74 NW 3 6 30.02 1017 10 16 N/A
10:53 am 10:53 Sunny 81 27.2 70 21.1 69 69 N N/A 30.01 1016 10 16 N/A
11:53 am 11:53 Sunny 85 29.4 69 20.6 59 59 VRB 3 6 30.01 1016 10 16 N/A
12:53 pm 12:53 Mostly Sunny 87 30.6 69 20.6 55 55 NE 3 6 29.99 1016 10 16 N/A
1:53 pm 13:53 Mostly Sunny 90 32.2 70 21.1 52 52 VRB 5 7 29.98 1015 10 16 N/A
2:53 pm 14:53 Mostly Cloudy 88 31.1 67 19.4 50 50 N N/A 29.98 1015 10 16 N/A
3:53 pm 15:53 Mostly Cloudy 89 31.7 67 19.4 48 48 WSW 7 11 29.96 1014 10 16 N/A
4:53 pm 16:53 Sunny 88 31.1 67 19.4 50 50 undefined N/A 29.94 1014 10 16 N/A
5:53 pm 17:53 Mostly Sunny 90 32.2 69 20.6 50 50 W 6 9 29.92 1013 10 16 N/A
6:53 pm 18:53 Sunny 88 31.1 68 20 52 52 W 6 9 29.92 1013 10 16 N/A
7:53 pm 19:53 Mostly Sunny 86 30 69 20.6 57 57 NW 5 7 29.91 1013 10 16 N/A
8:53 pm 20:53 Sunny 81 27.2 71 21.7 72 72 NW 5 7 29.91 1013 10 16 N/A
9:53 pm 21:53 Clear 77 25 71 21.7 82 82 N N/A 29.93 1013 10 16 N/A
10:53 pm 22:53 Clear 80 26.7 71 21.7 74 74 WNW 3 6 29.94 1014 10 16 N/A
11:53 pm 23:53 Partly Cloudy 77 25 71 21.7 82 82 N N/A 29.94 1014 10 16 N/A

Powered by AerisWeather